Overview Statistics Trail Chart Weather Telemetry Raw packets
 

This is the latest recevied weather packets stored in our database for station/object VE8SKI. If no packets are shown the sender has not sent any weather packets the latest 10 day(s).

<< 1 2 3 4 >>
Time Temp. Humidity Pressure Rain* Wind** Luminosity Snow
1778102920 8.89° C 42% 1010 hPa 0 mm 2.24 m/s, 212° - -
1778102618 8.89° C 42% 1010 hPa 0 mm 3.58 m/s, 173° - -
1778102318 8.89° C 43% 1010 hPa 0 mm 1.34 m/s, 159° - -
1778102018 8.89° C 44% 1010.1 hPa 0 mm 2.68 m/s, 176° - -
1778101719 8.33° C 43% 1010.1 hPa 0 mm 2.24 m/s, 203° - -
1778101419 8.33° C 43% 1010.1 hPa 0 mm 2.24 m/s, 172° - -
1778101120 8.33° C 43% 1010.2 hPa 0 mm 2.68 m/s, 194° - -
1778100818 8.89° C 43% 1010.4 hPa 0 mm 2.24 m/s, 163° - -
1778100518 8.33° C 44% 1010.4 hPa 0 mm 0.89 m/s, 233° - -
1778100219 8.33° C 43% 1010.4 hPa 0 mm 3.13 m/s, 187° - -
1778099919 8.33° C 43% 1010.4 hPa 0 mm 1.79 m/s, 236° - -
1778099620 7.78° C 43% 1010.3 hPa 0 mm 3.13 m/s, 253° - -
1778099320 7.78° C 43% 1010.3 hPa 0 mm 2.68 m/s, 215° - -
1778099018 7.78° C 42% 1010.2 hPa 0 mm 3.13 m/s, 228° - -
1778098718 8.33° C 42% 1010.3 hPa 0 mm 2.68 m/s, 125° - -
1778098419 7.78° C 43% 1010.3 hPa 0 mm 2.68 m/s, 166° - -
1778098119 8.33° C 42% 1010.4 hPa 0 mm 3.58 m/s, 205° - -
1778097820 8.33° C 41% 1010.4 hPa 0 mm 3.13 m/s, 176° - -
1778097520 8.33° C 42% 1010.4 hPa 0 mm 2.68 m/s, 197° - -
1778097218 8.33° C 42% 1010.5 hPa 0 mm 2.68 m/s, 169° - -
1778096918 7.78° C 41% 1010.4 hPa 0 mm 4.02 m/s, 215° - -
1778096645 8.33° C 41% 1010.4 hPa 0 mm 4.02 m/s, 91° - -
1778096319 8.33° C 41% 1010.5 hPa 0 mm 3.13 m/s, 165° - -
1778096020 8.33° C 41% 1010.4 hPa 0 mm 2.24 m/s, 207° - -
1778095720 8.33° C 41% 1010.5 hPa 0 mm 4.02 m/s, 207° - -

* Rain latest hour (hover to see other rain measurements)
** Current wind speed in m/s (hover to see current wind gust speed)